Time,TemperatureF,DewpointF,PressureIn,WindDirection,WindDirectionDegrees,WindSpeedMPH,WindSpeedGustMPH,Humidity,HourlyPrecipIn,Conditions,Clouds,dailyrainin,SoftwareType,DateUTC
2013-04-30 00:14:00,54.5,53.0,29.96,West,259,0.0,0.0,96,0.00,,,0.00,weatherlink.com 1.10,2013-04-30 04:14:00,
2013-04-30 00:29:00,54.2,53.0,29.96,West,259,0.0,0.0,96,0.00,,,0.00,weatherlink.com 1.10,2013-04-30 04:29:00,
2013-04-30 00:44:00,53.8,53.0,29.96,West,259,0.0,0.0,96,0.00,,,0.00,weatherlink.com 1.10,2013-04-30 04:44:00,
2013-04-30 01:00:00,53.3,52.0,29.96,West,259,0.0,0.0,96,0.00,,,0.00,weatherlink.com 1.10,2013-04-30 05:00:00,
2013-04-30 01:14:00,53.0,52.0,29.96,West,259,0.0,0.0,96,0.00,,,0.00,weatherlink.com 1.10,2013-04-30 05:14:00,
2013-04-30 01:29:00,52.6,52.0,29.96,West,259,0.0,0.0,96,0.00,,,0.00,weatherlink.com 1.10,2013-04-30 05:29:00,
2013-04-30 01:44:00,52.4,52.0,29.96,West,259,0.0,0.0,97,0.00,,,0.00,weatherlink.com 1.10,2013-04-30 05:44:00,
2013-04-30 01:59:00,52.2,51.0,29.96,West,259,0.0,0.0,97,0.00,,,0.00,weatherlink.com 1.10,2013-04-30 05:59:00,
2013-04-30 02:14:00,51.9,51.0,29.95,West,259,0.0,0.0,97,0.00,,,0.00,weatherlink.com 1.10,2013-04-30 06:14:00,
2013-04-30 02:29:00,51.5,51.0,29.95,West,259,0.0,0.0,97,0.00,,,0.00,weatherlink.com 1.10,2013-04-30 06:29:00,
2013-04-30 02:44:00,51.3,51.0,29.95,West,259,0.0,0.0,97,0.00,,,0.00,weatherlink.com 1.10,2013-04-30 06:44:00,
2013-04-30 02:59:00,50.9,50.0,29.95,West,259,0.0,0.0,97,0.00,,,0.00,weatherlink.com 1.10,2013-04-30 06:59:00,
2013-04-30 03:14:00,50.6,50.0,29.95,West,259,0.0,0.0,97,0.00,,,0.00,weatherlink.com 1.10,2013-04-30 07:14:00,
2013-04-30 03:29:00,50.5,50.0,29.95,West,259,0.0,0.0,97,0.00,,,0.00,weatherlink.com 1.10,2013-04-30 07:29:00,
2013-04-30 03:44:00,50.3,50.0,29.95,West,259,0.0,0.0,97,0.00,,,0.00,weatherlink.com 1.10,2013-04-30 07:44:00,
2013-04-30 03:59:00,50.2,49.0,29.96,West,259,0.0,0.0,97,0.00,,,0.00,weatherlink.com 1.10,2013-04-30 07:59:00,
2013-04-30 04:14:00,49.9,49.0,29.96,West,259,0.0,0.0,97,0.00,,,0.00,weatherlink.com 1.10,2013-04-30 08:14:00,
2013-04-30 04:29:00,49.5,49.0,29.97,West,259,0.0,0.0,97,0.00,,,0.00,weatherlink.com 1.10,2013-04-30 08:29:00,
2013-04-30 04:44:00,49.2,48.0,29.97,West,259,0.0,0.0,97,0.00,,,0.00,weatherlink.com 1.10,2013-04-30 08:44:00,
2013-04-30 04:59:00,49.1,48.0,29.97,West,259,0.0,0.0,97,0.00,,,0.00,weatherlink.com 1.10,2013-04-30 08:59:00,
2013-04-30 05:14:00,48.7,48.0,29.97,West,259,0.0,0.0,97,0.00,,,0.00,weatherlink.com 1.10,2013-04-30 09:14:00,
2013-04-30 05:29:00,48.6,48.0,29.98,West,259,0.0,0.0,98,0.00,,,0.00,weatherlink.com 1.10,2013-04-30 09:29:00,
2013-04-30 05:44:00,48.4,48.0,29.98,West,259,0.0,0.0,98,0.00,,,0.00,weatherlink.com 1.10,2013-04-30 09:44:00,
2013-04-30 05:59:00,48.1,48.0,29.99,West,259,0.0,0.0,98,0.00,,,0.00,weatherlink.com 1.10,2013-04-30 09:59:00,
2013-04-30 06:14:00,47.9,47.0,29.99,West,259,0.0,0.0,98,0.00,,,0.00,weatherlink.com 1.10,2013-04-30 10:14:00,
2013-04-30 06:29:00,47.6,47.0,30.00,West,259,0.0,0.0,98,0.00,,,0.00,weatherlink.com 1.10,2013-04-30 10:29:00,
2013-04-30 06:45:00,47.4,47.0,30.01,West,259,0.0,0.0,98,0.00,,,0.00,weatherlink.com 1.10,2013-04-30 10:45:00,
2013-04-30 07:00:00,47.3,47.0,30.01,West,259,0.0,0.0,98,0.00,,,0.00,weatherlink.com 1.10,2013-04-30 11:00:00,
2013-04-30 07:15:00,47.5,47.0,30.02,West,259,0.0,0.0,98,0.00,,,0.00,weatherlink.com 1.10,2013-04-30 11:15:00,
2013-04-30 07:30:00,47.3,47.0,30.02,West,259,0.0,0.0,98,0.00,,,0.00,weatherlink.com 1.10,2013-04-30 11:30:00,
2013-04-30 07:45:00,47.7,47.0,30.03,West,259,0.0,0.0,98,0.00,,,0.00,weatherlink.com 1.10,2013-04-30 11:45:00,
2013-04-30 08:00:00,48.5,48.0,30.04,West,259,0.0,0.0,98,0.00,,,0.00,weatherlink.com 1.10,2013-04-30 12:00:00,
2013-04-30 08:15:00,49.3,49.0,30.04,West,259,0.0,0.0,98,0.00,,,0.00,weatherlink.com 1.10,2013-04-30 12:15:00,
2013-04-30 08:30:00,50.7,50.0,30.05,West,259,0.0,0.0,98,0.00,,,0.00,weatherlink.com 1.10,2013-04-30 12:30:00,
2013-04-30 08:45:00,52.3,52.0,30.05,West,259,0.0,0.0,98,0.00,,,0.00,weatherlink.com 1.10,2013-04-30 12:45:00,
2013-04-30 09:00:00,54.0,54.0,30.05,West,259,0.0,0.0,98,0.00,,,0.00,weatherlink.com 1.10,2013-04-30 13:00:00,
2013-04-30 09:15:00,57.5,57.0,30.05,WNW,294,0.0,1.0,98,0.00,,,0.00,weatherlink.com 1.10,2013-04-30 13:15:00,
2013-04-30 09:30:00,59.0,59.0,30.05,North,9,1.0,1.0,98,0.00,,,0.00,weatherlink.com 1.10,2013-04-30 13:30:00,
2013-04-30 09:45:00,61.8,59.0,30.06,East,101,0.0,1.0,90,0.00,,,0.00,weatherlink.com 1.10,2013-04-30 13:45:00,
2013-04-30 10:00:00,63.7,59.0,30.06,NE,56,0.0,2.0,84,0.00,,,0.00,weatherlink.com 1.10,2013-04-30 14:00:00,
2013-04-30 10:15:00,65.1,58.0,30.06,North,356,0.0,2.0,77,0.00,,,0.00,weatherlink.com 1.10,2013-04-30 14:15:00,
2013-04-30 10:30:00,66.1,57.0,30.06,SE,134,0.0,3.0,72,0.00,,,0.00,weatherlink.com 1.10,2013-04-30 14:30:00,
2013-04-30 10:45:00,66.7,57.0,30.05,North,8,1.0,3.0,72,0.00,,,0.00,weatherlink.com 1.10,2013-04-30 14:45:00,
2013-04-30 11:00:00,68.9,58.0,30.05,NNW,344,0.0,2.0,68,0.00,,,0.00,weatherlink.com 1.10,2013-04-30 15:00:00,
2013-04-30 11:15:00,70.4,59.0,30.05,ESE,117,0.0,1.0,68,0.00,,,0.00,weatherlink.com 1.10,2013-04-30 15:15:00,
2013-04-30 11:30:00,71.4,60.0,30.05,West,266,0.0,1.0,68,0.00,,,0.00,weatherlink.com 1.10,2013-04-30 15:30:00,
2013-04-30 11:45:00,71.7,59.0,30.05,NNE,26,1.0,2.0,65,0.00,,,0.00,weatherlink.com 1.10,2013-04-30 15:45:00,
2013-04-30 12:01:00,73.4,60.0,30.05,ESE,105,0.0,2.0,64,0.00,,,0.00,weatherlink.com 1.10,2013-04-30 16:01:00,
2013-04-30 12:15:00,74.0,59.0,30.04,West,266,0.0,1.0,60,0.00,,,0.00,weatherlink.com 1.10,2013-04-30 16:15:00,
2013-04-30 12:31:00,75.4,58.0,30.04,NNE,17,1.0,2.0,56,0.00,,,0.00,weatherlink.com 1.10,2013-04-30 16:31:00,
2013-04-30 12:46:00,75.1,59.0,30.03,North,7,2.0,2.0,58,0.00,,,0.00,weatherlink.com 1.10,2013-04-30 16:46:00,
2013-04-30 13:01:00,76.9,57.0,30.02,West,270,0.0,1.0,50,0.00,,,0.00,weatherlink.com 1.10,2013-04-30 17:01:00,
2013-04-30 13:16:00,77.3,57.0,30.02,WNW,302,0.0,2.0,49,0.00,,,0.00,weatherlink.com 1.10,2013-04-30 17:16:00,
2013-04-30 13:31:00,78.1,58.0,30.01,East,87,0.0,2.0,50,0.00,,,0.00,weatherlink.com 1.10,2013-04-30 17:31:00,
2013-04-30 13:46:00,78.9,56.0,30.01,South,180,0.0,2.0,45,0.00,,,0.00,weatherlink.com 1.10,2013-04-30 17:46:00,
2013-04-30 14:01:00,79.9,55.0,30.01,SE,146,0.0,2.0,43,0.00,,,0.00,weatherlink.com 1.10,2013-04-30 18:01:00,
2013-04-30 14:16:00,79.2,56.0,30.01,West,268,0.0,4.0,45,0.00,,,0.00,weatherlink.com 1.10,2013-04-30 18:16:00,
2013-04-30 14:31:00,78.3,56.0,30.00,SE,146,0.0,5.0,46,0.00,,,0.00,weatherlink.com 1.10,2013-04-30 18:31:00,
2013-04-30 14:46:00,79.3,55.0,30.00,South,179,0.0,2.0,44,0.00,,,0.00,weatherlink.com 1.10,2013-04-30 18:46:00,
2013-04-30 15:01:00,79.7,56.0,30.00,South,186,1.0,3.0,45,0.00,,,0.00,weatherlink.com 1.10,2013-04-30 19:01:00,
2013-04-30 15:16:00,79.4,57.0,30.00,SE,129,2.0,2.0,46,0.00,,,0.00,weatherlink.com 1.10,2013-04-30 19:16:00,
2013-04-30 15:31:00,79.5,56.0,30.00,WSW,248,1.0,2.0,45,0.00,,,0.00,weatherlink.com 1.10,2013-04-30 19:31:00,
2013-04-30 15:46:00,79.9,53.0,30.00,WSW,257,1.0,3.0,40,0.00,,,0.00,weatherlink.com 1.10,2013-04-30 19:46:00,
2013-04-30 16:01:00,79.4,55.0,29.99,ESE,110,1.0,4.0,43,0.00,,,0.00,weatherlink.com 1.10,2013-04-30 20:01:00,
2013-04-30 16:16:00,79.7,54.0,29.99,East,98,0.0,4.0,41,0.00,,,0.00,weatherlink.com 1.10,2013-04-30 20:16:00,
2013-04-30 16:31:00,79.7,53.0,29.98,SSE,160,0.0,4.0,39,0.00,,,0.00,weatherlink.com 1.10,2013-04-30 20:31:00,
2013-04-30 16:49:00,80.1,54.0,29.98,SW,227,0.0,3.0,41,0.00,,,0.00,weatherlink.com 1.10,2013-04-30 20:49:00,
2013-04-30 17:01:00,80.7,54.0,29.98,ENE,76,0.0,3.0,40,0.00,,,0.00,weatherlink.com 1.10,2013-04-30 21:01:00,
2013-04-30 17:16:00,80.2,52.0,29.98,ESE,115,1.0,2.0,37,0.00,,,0.00,weatherlink.com 1.10,2013-04-30 21:16:00,
2013-04-30 17:31:00,79.6,51.0,29.98,SSE,148,3.0,3.0,37,0.00,,,0.00,weatherlink.com 1.10,2013-04-30 21:31:00,
2013-04-30 17:46:00,78.4,53.0,29.98,SW,236,0.0,2.0,42,0.00,,,0.00,weatherlink.com 1.10,2013-04-30 21:46:00,
2013-04-30 18:01:00,78.4,51.0,29.98,West,272,0.0,1.0,39,0.00,,,0.00,weatherlink.com 1.10,2013-04-30 22:01:00,
2013-04-30 18:16:00,78.6,53.0,29.98,West,275,0.0,1.0,41,0.00,,,0.00,weatherlink.com 1.10,2013-04-30 22:16:00,
2013-04-30 18:31:00,77.6,55.0,29.98,SSE,148,0.0,0.0,45,0.00,,,0.00,weatherlink.com 1.10,2013-04-30 22:31:00,
2013-04-30 18:46:00,76.7,53.0,29.99,WSW,254,0.0,2.0,44,0.00,,,0.00,weatherlink.com 1.10,2013-04-30 22:46:00,
2013-04-30 19:01:00,75.9,54.0,29.98,WSW,254,0.0,0.0,46,0.00,,,0.00,weatherlink.com 1.10,2013-04-30 23:01:00,
2013-04-30 19:16:00,74.9,54.0,29.99,WSW,254,0.0,0.0,48,0.00,,,0.00,weatherlink.com 1.10,2013-04-30 23:16:00,
2013-04-30 19:31:00,73.7,56.0,29.98,WSW,254,0.0,0.0,55,0.00,,,0.00,weatherlink.com 1.10,2013-04-30 23:31:00,
2013-04-30 19:46:00,72.4,57.0,29.98,WSW,254,0.0,1.0,59,0.00,,,0.00,weatherlink.com 1.10,2013-04-30 23:46:00,
2013-04-30 20:01:00,70.8,57.0,29.98,WSW,254,0.0,0.0,63,0.00,,,0.00,weatherlink.com 1.10,2013-05-01 00:01:00,
2013-04-30 20:16:00,69.3,57.0,29.99,WSW,254,0.0,0.0,66,0.00,,,0.00,weatherlink.com 1.10,2013-05-01 00:16:00,
2013-04-30 20:33:00,67.5,57.0,30.00,WSW,254,0.0,0.0,70,0.00,,,0.00,weatherlink.com 1.10,2013-05-01 00:33:00,
2013-04-30 20:46:00,66.3,57.0,30.00,WSW,254,0.0,0.0,73,0.00,,,0.00,weatherlink.com 1.10,2013-05-01 00:46:00,
2013-04-30 21:01:00,65.2,57.0,30.01,WSW,254,0.0,0.0,75,0.00,,,0.00,weatherlink.com 1.10,2013-05-01 01:01:00,
2013-04-30 21:16:00,64.2,57.0,30.02,WSW,254,0.0,0.0,78,0.00,,,0.00,weatherlink.com 1.10,2013-05-01 01:16:00,
2013-04-30 21:31:00,63.3,57.0,30.02,WSW,254,0.0,0.0,80,0.00,,,0.00,weatherlink.com 1.10,2013-05-01 01:31:00,
2013-04-30 21:46:00,62.6,57.0,30.02,WSW,254,0.0,0.0,81,0.00,,,0.00,weatherlink.com 1.10,2013-05-01 01:46:00,
2013-04-30 22:01:00,62.0,57.0,30.03,WSW,254,0.0,0.0,83,0.00,,,0.00,weatherlink.com 1.10,2013-05-01 02:01:00,
2013-04-30 22:16:00,61.3,57.0,30.04,WSW,254,0.0,0.0,84,0.00,,,0.00,weatherlink.com 1.10,2013-05-01 02:16:00,
2013-04-30 22:31:00,60.7,56.0,30.04,WSW,254,0.0,0.0,85,0.00,,,0.00,weatherlink.com 1.10,2013-05-01 02:31:00,
2013-04-30 22:46:00,60.1,56.0,30.05,WSW,254,0.0,0.0,87,0.00,,,0.00,weatherlink.com 1.10,2013-05-01 02:46:00,
2013-04-30 23:01:00,59.5,56.0,30.05,WSW,254,0.0,0.0,88,0.00,,,0.00,weatherlink.com 1.10,2013-05-01 03:01:00,
2013-04-30 23:16:00,59.0,56.0,30.05,WSW,254,0.0,0.0,89,0.00,,,0.00,weatherlink.com 1.10,2013-05-01 03:16:00,
2013-04-30 23:31:00,58.6,56.0,30.06,WSW,254,0.0,0.0,90,0.00,,,0.00,weatherlink.com 1.10,2013-05-01 03:31:00,
2013-04-30 23:46:00,58.2,56.0,30.06,WSW,254,0.0,0.0,91,0.00,,,0.00,weatherlink.com 1.10,2013-05-01 03:46:00,